Location: Unspecified
(0.0000°N, 0.0000°E)
Time: 12:45:32
(UTC+00:00)

AAUSAT CUBESAT 2 - Visible Passes

Search period start: 19 June 2018 00:00
Search period end: 29 June 2018 00:00
Orbit: 576 x 592 km, 97.5° (Epoch: 18 June)

Date Brightness Start Highest point End Pass type
(mag) Time Alt. Az. Time Alt. Az. Time Alt. Az.
19 Jun ? 19:56:59 11° SSW 19:59:46 20° WSW 20:02:45 10° NW visible
20 Jun ? 18:28:04 10° ESE 18:30:51 18° ENE 18:33:37 10° NE visible
20 Jun ? 20:03:28 10° SW 20:06:00 16° WSW 20:08:32 10° WNW visible
21 Jun ? 18:33:54 10° SE 18:37:05 22° ENE 18:40:15 10° NNE visible
21 Jun ? 20:10:22 10° SW 20:12:15 13° WSW 20:14:07 10° WNW visible
22 Jun ? 18:39:51 10° SE 18:43:20 27° ENE 18:46:47 10° NNE visible
22 Jun ? 20:17:58 10° WSW 20:18:29 10° WSW 20:19:00 10° W visible
23 Jun ? 18:45:52 10° SE 18:49:34 33° E 18:53:16 10° NNE visible
24 Jun ? 18:51:58 10° SSE 18:55:49 42° ENE 18:59:41 10° N visible
25 Jun ? 18:58:15 11° SSE 19:02:03 53° E 19:06:02 10° N visible
26 Jun ? 19:04:31 12° SSE 19:08:17 68° E 19:12:21 10° N visible
27 Jun ? 19:10:48 12° SSE 19:14:32 85° E 19:18:37 10° N visible
28 Jun ? 19:17:04 13° S 19:20:46 76° WSW 19:24:51 10° NNW visible
